Weather History for KEAR - February, 2014

Change the Weather History Date:

Thursday, February 27, 2014

  Actual Average Record
Temperature  
Mean Temperature 19 °F 32 °F  
Max Temperature 30 °F 43 °F 75 °F (2006)
Min Temperature 7 °F 20 °F -9 °F (1962)
Degree Days  
Heating Degree Days 46 33  
Month to date heating degree days 999  
Since 1 July heating degree days 4893  
Cooling Degree Days 0 0  
Month to date cooling degree days 0  
Year to date cooling degree days 0  
Moisture  
Dew Point 8 °F    
Average Humidity 65    
Maximum Humidity 83    
Minimum Humidity 46    
Precipitation  
Precipitation 0.00 in - 1.05 in (1958)
Sea Level Pressure  
Sea Level Pressure 29.91 in    
Wind  
Wind Speed 12 mph (ESE)    
Max Wind Speed 18 mph    
Max Gust Speed 24 mph    
Visibility 10 miles    
Events      
T = Trace of Precipitation, MM = Missing Value Source: NWS Daily Summary

Daily Weather History Graph

Daily Weather History Graph

Search for Another Location

Airport or City:

Trip Planner

Search our weather history database for the weather conditions in past years. The results will help you decide how hot, cold, wet, or windy it might be!

Date:

Astronomy

Feb. 27, 2014 Rise Set
Actual Time 7:12 AM CST 6:25 PM CST
Civil Twilight 6:45 AM CST 6:52 PM CST
Nautical Twilight 6:13 AM CST 7:24 PM CST
Astronomical Twilight 5:42 AM CST 7:56 PM CST
Moon 5:47 AM CST (2/27) 4:52 PM CST (2/27)
Length of Visible Light 12h 07m
Length of Day
11h 12m
Waning Crescent, 4% of the Moon is Illuminated
Feb 27
Waning Crescent
Mar 1
New
Mar 8
First Quarter
Mar 16
Full
Mar 23
Last Quarter

Hourly Weather History & Observations

Time (CST) Temp. Windchill Dew Point Humidity Pressure Visibility Wind Dir Wind Speed Gust Speed Precip Events Conditions
12:15 AM 21.2 °F 11.7 °F 12.2 °F 68% 29.99 in 10.0 mi NW 8.1 mph - N/A   Clear
12:35 AM 19.4 °F 8.6 °F 12.2 °F 74% 29.99 in 10.0 mi NW 9.2 mph - N/A   Clear
12:55 AM 17.6 °F 7.3 °F 12.2 °F 79% 30.00 in 10.0 mi NW 8.1 mph - N/A   Clear
1:15 AM 17.6 °F 9.3 °F 10.4 °F 73% 30.00 in 10.0 mi NW 5.8 mph - N/A   Clear
1:35 AM 17.6 °F 9.3 °F 10.4 °F 73% 30.00 in 10.0 mi WNW 5.8 mph - N/A   Clear
1:55 AM 17.6 °F 8.2 °F 12.2 °F 79% 30.00 in 10.0 mi NW 6.9 mph - N/A   Clear
2:15 AM 17.6 °F 7.3 °F 10.4 °F 73% 30.00 in 10.0 mi NNW 8.1 mph - N/A   Clear
2:35 AM 15.8 °F 6.1 °F 10.4 °F 79% 30.00 in 10.0 mi NNW 6.9 mph - N/A   Clear
2:55 AM 15.8 °F 6.1 °F 8.6 °F 73% 30.00 in 10.0 mi NW 6.9 mph - N/A   Clear
3:15 AM 14.0 °F 5.1 °F 8.6 °F 79% 30.00 in 10.0 mi WNW 5.8 mph - N/A   Clear
3:35 AM 12.2 °F 6.1 °F 6.8 °F 79% 30.00 in 10.0 mi NNW 3.5 mph - N/A   Clear
3:55 AM 12.2 °F 1.7 °F 6.8 °F 79% 30.00 in 10.0 mi NNW 6.9 mph - N/A   Clear
4:15 AM 14.0 °F 2.9 °F 6.8 °F 73% 30.00 in 10.0 mi NNE 8.1 mph - N/A   Clear
4:35 AM 12.2 °F 4.3 °F 6.8 °F 79% 30.02 in 10.0 mi NNE 4.6 mph - N/A   Clear
4:55 AM 12.2 °F 1.7 °F 6.8 °F 79% 30.02 in 10.0 mi NE 6.9 mph - N/A   Clear
5:15 AM 12.2 °F -1.8 °F 8.6 °F 85% 30.02 in 10.0 mi ENE 11.5 mph - N/A   Clear
5:35 AM 10.4 °F -1.5 °F 5.0 °F 79% 30.03 in 10.0 mi East 8.1 mph - N/A   Clear
5:55 AM 8.6 °F -2.6 °F 5.0 °F 85% 30.03 in 10.0 mi East 6.9 mph - N/A   Clear
6:15 AM 8.6 °F -3.7 °F 5.0 °F 85% 30.03 in 10.0 mi East 8.1 mph - N/A   Clear
6:35 AM 6.8 °F -5.9 °F 3.2 °F 85% 30.03 in 10.0 mi ENE 8.1 mph - N/A   Clear
6:55 AM 8.6 °F -3.7 °F 3.2 °F 79% 30.03 in 10.0 mi East 8.1 mph - N/A   Clear
7:15 AM 8.6 °F -1.3 °F 1.4 °F 73% 30.04 in 10.0 mi East 5.8 mph - N/A   Clear
7:35 AM 6.8 °F -4.8 °F 1.4 °F 79% 30.04 in 10.0 mi East 6.9 mph - N/A   Clear
7:55 AM 8.6 °F -4.7 °F 3.2 °F 79% 30.04 in 10.0 mi East 9.2 mph - N/A   Clear
8:15 AM 10.4 °F -4.1 °F 3.2 °F 73% 30.05 in 10.0 mi East 11.5 mph - N/A   Clear
8:35 AM 10.4 °F -6.6 °F 3.2 °F 73% 30.04 in 10.0 mi East 16.1 mph - N/A   Clear
8:55 AM 12.2 °F -2.5 °F 3.2 °F 67% 30.05 in 10.0 mi East 12.7 mph - N/A   Clear
9:15 AM 12.2 °F -1.0 °F 3.2 °F 67% 30.04 in 10.0 mi East 10.4 mph - N/A   Clear
9:35 AM 14.0 °F 1.2 °F 3.2 °F 62% 30.04 in 10.0 mi ESE 10.4 mph - N/A   Clear
9:55 AM 15.8 °F 3.4 °F 3.2 °F 58% 30.03 in 10.0 mi ESE 10.4 mph - N/A   Clear
10:15 AM 15.8 °F 2.7 °F 5.0 °F 62% 30.01 in 10.0 mi East 11.5 mph - N/A   Clear
10:35 AM 17.6 °F 4.3 °F 5.0 °F 58% 30.01 in 10.0 mi ESE 12.7 mph - N/A   Clear
10:55 AM 19.4 °F 7.2 °F 3.2 °F 49% 30.00 in 10.0 mi ESE 11.5 mph 18.4 mph N/A   Clear
11:15 AM 19.4 °F 6.6 °F 3.2 °F 49% 29.99 in 10.0 mi ESE 12.7 mph - N/A   Mostly Cloudy
11:35 AM 21.2 °F 9.5 °F 6.8 °F 54% 29.99 in 10.0 mi ESE 11.5 mph - N/A   Overcast
11:55 AM 21.2 °F 8.3 °F 6.8 °F 54% 29.97 in 10.0 mi ESE 13.8 mph - N/A   Overcast
12:15 PM 21.2 °F 8.9 °F 5.0 °F 50% 29.96 in 10.0 mi ESE 12.7 mph 18.4 mph N/A   Overcast
12:35 PM 24.8 °F 12.9 °F 6.8 °F 46% 29.95 in 10.0 mi SE 13.8 mph 21.9 mph N/A   Overcast
12:55 PM 24.8 °F 12.4 °F 8.6 °F 50% 29.93 in 10.0 mi SE 15.0 mph 24.2 mph N/A   Overcast
1:15 PM 24.8 °F 12.4 °F 6.8 °F 46% 29.91 in 10.0 mi ESE 15.0 mph 20.7 mph N/A   Overcast
1:35 PM 26.6 °F 14.3 °F 8.6 °F 47% 29.90 in 10.0 mi SE 16.1 mph 19.6 mph N/A   Partly Cloudy
1:55 PM 26.6 °F 14.7 °F 8.6 °F 47% 29.90 in 10.0 mi ESE 15.0 mph 21.9 mph N/A   Clear
2:15 PM 28.4 °F 17.0 °F 10.4 °F 47% 29.89 in 10.0 mi SSE 15.0 mph 21.9 mph N/A   Clear
2:35 PM 28.4 °F 16.2 °F 10.4 °F 47% 29.87 in 10.0 mi SSE 17.3 mph - N/A   Clear
2:55 PM 28.4 °F 16.6 °F 12.2 °F 51% 29.86 in 10.0 mi SE 16.1 mph 21.9 mph N/A   Clear
3:15 PM 28.4 °F 18.0 °F 10.4 °F 47% 29.86 in 10.0 mi SSE 12.7 mph - N/A   Clear
3:35 PM 28.4 °F 17.0 °F 10.4 °F 47% 29.86 in 10.0 mi SSE 15.0 mph 19.6 mph N/A   Clear
3:55 PM 28.4 °F 17.0 °F 10.4 °F 47% 29.86 in 10.0 mi SSE 15.0 mph 20.7 mph N/A   Clear
4:15 PM 28.4 °F 17.5 °F 12.2 °F 51% 29.85 in 10.0 mi SSE 13.8 mph 20.7 mph N/A   Clear
4:35 PM 28.4 °F 16.2 °F 12.2 °F 51% 29.84 in 10.0 mi SSE 17.3 mph - N/A   Clear
4:55 PM 28.4 °F 17.0 °F 12.2 °F 51% 29.83 in 10.0 mi SSE 15.0 mph - N/A   Clear
5:15 PM 28.4 °F 16.2 °F 12.2 °F 51% 29.82 in 10.0 mi SSE 17.3 mph 21.9 mph N/A   Clear
5:35 PM 28.4 °F 16.6 °F 12.2 °F 51% 29.80 in 10.0 mi SE 16.1 mph - N/A   Clear
5:55 PM 26.6 °F 14.3 °F 12.2 °F 55% 29.80 in 10.0 mi SE 16.1 mph - N/A   Clear
6:15 PM 26.6 °F 14.7 °F 12.2 °F 55% 29.79 in 10.0 mi SE 15.0 mph - N/A   Clear
6:35 PM 24.8 °F 11.9 °F 12.2 °F 59% 29.78 in 10.0 mi SE 16.1 mph 20.7 mph N/A   Clear
6:55 PM 24.8 °F 12.4 °F 12.2 °F 59% 29.78 in 10.0 mi ESE 15.0 mph - N/A   Clear
7:15 PM 24.8 °F 13.4 °F 12.2 °F 59% 29.77 in 10.0 mi ESE 12.7 mph - N/A   Clear
7:35 PM 24.8 °F 12.9 °F 12.2 °F 59% 29.77 in 10.0 mi ESE 13.8 mph - N/A   Clear
7:55 PM 24.8 °F 12.4 °F 12.2 °F 59% 29.77 in 10.0 mi ESE 15.0 mph - N/A   Clear
8:15 PM 24.8 °F 12.4 °F 10.4 °F 54% 29.77 in 10.0 mi ESE 15.0 mph 19.6 mph N/A   Clear
8:35 PM 23.0 °F 9.6 °F 10.4 °F 59% 29.76 in 10.0 mi ESE 16.1 mph - N/A   Clear
8:55 PM 21.2 °F 6.4 °F 8.6 °F 58% 29.75 in 10.0 mi ESE 18.4 mph - N/A   Clear
9:15 PM 21.2 °F 7.8 °F 6.8 °F 54% 29.75 in 10.0 mi ESE 15.0 mph - N/A   Clear
9:35 PM 21.2 °F 6.8 °F 6.8 °F 54% 29.75 in 10.0 mi ESE 17.3 mph - N/A   Clear
9:55 PM 21.2 °F 7.8 °F 6.8 °F 54% 29.75 in 10.0 mi SE 15.0 mph - N/A   Clear
10:15 PM 19.4 °F 6.0 °F 6.8 °F 58% 29.74 in 10.0 mi SE 13.8 mph - N/A   Clear
10:35 PM 19.4 °F 6.0 °F 6.8 °F 58% 29.74 in 10.0 mi SE 13.8 mph - N/A   Clear
10:55 PM 19.4 °F 6.0 °F 6.8 °F 58% 29.73 in 10.0 mi SE 13.8 mph - N/A   Clear
11:15 PM 19.4 °F 6.6 °F 6.8 °F 58% 29.72 in 10.0 mi SE 12.7 mph - N/A   Clear
11:35 PM 17.6 °F 6.4 °F 6.8 °F 63% 29.72 in 10.0 mi ESE 9.2 mph - N/A   Clear
11:55 PM 17.6 °F 6.4 °F 6.8 °F 63% 29.71 in 10.0 mi ESE 9.2 mph - N/A   Clear